CZ-6A DEB

Satellite information

Favourite Embed

Satellite Type and Status

DEBRISIN ORBIT

Key statistics

Satellite CZ-6A DEB at a glance.

Uptime

970

Days in orbit

Revolutions

≈ 14.1

Per day

Orbit

SSO

Sun Synchronous Orbit

Inclination

98.8

Latest

Satellite identification and parameters

Extended collection of information and parameters for CZ-6A DEB.

Object identification

Identified? True

Debris? True

Object name: CZ-6A DEB

International designator: 2022-151XW

Object number (NORAD): 55524

Object ID (CCSDS): 55524

Country: PEOPLES REPUBLIC OF CHINA (PRC)

Current information (Y/N): Y

RCS size: SMALL

Orbital parameters

Period: 101.817 minutes

Inclination: 98.8427 deg

SMA: 7222.835 km

Apoapsis: 882.723 km

Periapsis: 806.678 km

RAAN: 191.6481 deg

Eccentricy: 0.0052642

Argument of periapsis: 230.5984 deg

Mean anomaly: 129.0521 deg

Mean motion: 14.14298922 rev/day

Mean motion (dot): 0.00001731 rev/day2

B* drag term: 0.00091695 1/REarth

Two-line elements (TLE)

Creation date: July 8, 2025, 2:27 a.m.

Reference frame: TEME

Reference center: EARTH

Epoch: July 7, 2025, 5:43 p.m. UTC

TLE line 0: 0 CZ-6A DEB

TLE line 1: 1 55524U 22151XW 25188.73864242 .00001731 00000-0 91695-3 0 9997

TLE line 2: 2 55524 98.8427 191.6481 0052642 230.5984 129.0521 14.14298922131121

Live tracking on map

Real-time ground track for satellite CZ-6A DEB.

In-orbit conjunctions

A list of the most updated potential collisions computed for object CZ-6A DEB.

Target Orbit TCA Probability of collision Miss distance Type
SCOUT G-1 DEB LEO 2025-01-06 01:43:49 0.0002321963 26.0 (m) DEBRIS
SL-3 DEB LEO 2024-10-03 05:04:31 0.0001524965 118.0 (m) DEBRIS

Associated space launch

Chinese satellite reported for atmospheric/ocean/environmental/spatial parameter research purposes, details TBD.

CZ-6A DEB was lifted into orbit during the mission ‘Long March 6A | Yunhai 3’, on board a Long March 6A space rocket.

The launch took place on Nov. 11, 2022, 10:52 p.m. from Launch Complex 9A.

For more information about the launch, click the button.

Launch to space Long March 6A | Yunhai 3
Long March 6A | Yunhai 3

Agency: N/A

Status: Launch Successful

Launch date: Nov. 11, 2022, 10:52 p.m. UTC

Rocket: Long March 6A

Launch pad: Launch Complex 9A

Location: Taiyuan Satellite Launch Center, People's Republic of China

...

Latest news about this satellite

There are no fresh news available about this satellite. Check back as we update our databases every day.


Newsletter sign-up

Weekly statistics, charts and insights to help you stay on top of the space industry.